COSMOS 1275 DEB

Satellite information

Favourite Embed

Satellite Type and Status

DEBRISIN ORBIT

Key statistics

Satellite COSMOS 1275 DEB at a glance.

Uptime

16103

Days in orbit

Revolutions

≈ 14.1

Per day

Orbit

LEO

Low Earth Orbit

Inclination

82.9

Latest

Satellite identification and parameters

Extended collection of information and parameters for COSMOS 1275 DEB.

Object identification

Identified? True

Debris? True

Object name: COSMOS 1275 DEB

International designator: 1981-053HF

Object number (NORAD): 13811

Object ID (CCSDS): 13811

Country: COMMONWEALTH OF INDEPENDENT STATES (CIS)

Current information (Y/N): Y

RCS size: SMALL

Orbital parameters

Period: 101.816 minutes

Inclination: 82.9357 deg

SMA: 7222.763 km

Apoapsis: 855.777 km

Periapsis: 833.478 km

RAAN: 145.0686 deg

Eccentricy: 0.0015437

Argument of periapsis: 76.503 deg

Mean anomaly: 45.6751 deg

Mean motion: 14.14320205 rev/day

Mean motion (dot): 0.00001842 rev/day2

B* drag term: 0.00095457 1/REarth

Two-line elements (TLE)

Creation date: July 2, 2025, 5:47 p.m.

Reference frame: TEME

Reference center: EARTH

Epoch: July 2, 2025, 9:06 a.m. UTC

TLE line 0: 0 COSMOS 1275 DEB

TLE line 1: 1 13811U 81053HF 25183.37930774 .00001842 00000-0 95457-3 0 9998

TLE line 2: 2 13811 82.9357 145.0686 0015437 76.5030 45.6751 14.14320205165025

Live tracking on map

Real-time ground track for satellite COSMOS 1275 DEB.

In-orbit conjunctions

A list of the most updated potential collisions computed for object COSMOS 1275 DEB.

Target Orbit TCA Probability of collision Miss distance Type
CZ-6A DEB LEO 2025-06-02 14:10:09 0.0001948777 58.0 (m) DEBRIS
THOR BURNER 2 R/B SSO 2025-02-18 15:49:57 0.0001420357 617.0 (m) ROCKET BODY

Associated space launch

Navigation satellite providing location information for the Tsiklon-B navigation system

COSMOS 1275 DEB was lifted into orbit during the mission ‘Kosmos-3M | Parus 27’, on board a Kosmos-3M space rocket.

The launch took place on June 4, 1981, 3:41 p.m. from 132/2.

For more information about the launch, click the button.

Launch to space Kosmos-3M | Parus 27
Kosmos-3M | Parus 27

Agency: N/A

Status: Launch Successful

Launch date: June 4, 1981, 3:41 p.m. UTC

Rocket: Kosmos-3M

Launch pad: 132/2

Location: Plesetsk Cosmodrome, Russian Federation

...

Latest news about this satellite

There are no fresh news available about this satellite. Check back as we update our databases every day.


Newsletter sign-up

Weekly statistics, charts and insights to help you stay on top of the space industry.